Fergus Falls, MN

8:43 PM CST on December 13, 2019 (GMT -0600)
Fergus Falls Municipal-Mickelson

Weather History for KFFM - October, 2019

Change the Weather History Date:

Monday, October 14, 2019

  Actual Average Record
Temperature  
Mean Temperature 38 °F -  
Max Temperature 48 °F 56 °F 82 °F (1962)
Min Temperature 28 °F 36 °F 20 °F (1979)
Degree Days  
Heating Degree Days 27    
Moisture  
Dew Point 32 °F    
Average Humidity 82    
Maximum Humidity 100    
Minimum Humidity 58    
Precipitation  
Precipitation 0.00 in - - ()
Sea Level Pressure  
Sea Level Pressure 29.92 in    
Wind  
Wind Speed 3 mph ()    
Max Wind Speed 8 mph    
Max Gust Speed -    
Visibility 9.9 miles    
Events      
Averages and records for this station are not official NWS values.
T = Trace of Precipitation, MM = Missing Value Source: Averaged Metar Reports

Daily Weather History Graph

Daily Weather History Graph

Search for Another Location

Airport or City:

Astronomy

Oct. 14, 2019 Rise Set
Actual Time 7:40 AM CDT 6:40 PM CDT
Civil Twilight 7:09 AM CDT 7:10 PM CDT
Nautical Twilight 6:35 AM CDT 7:45 PM CDT
Astronomical Twilight 6:00 AM CDT 8:20 PM CDT
Moon 7:30 PM CDT 8:12 AM CDT
Length of Visible Light 12h 00m
Length of Day
11h 00m
Full, 99% of the Moon is Illuminated
Oct 14
Full
Oct 21
Last Quarter
Oct 27
New
Nov 4
First Quarter
Nov 12
Full

Hourly Weather History & Observations

Time (CDT) Temp. Windchill Dew Point Humidity Pressure Visibility Wind Dir Wind Speed Gust Speed Precip Events Conditions
12:16 AM 33.8 °F 30.8 °F 32.0 °F 93% 29.94 in 10.0 mi West 3.5 mph - N/A   Overcast
12:36 AM 33.8 °F 30.8 °F 32.0 °F 93% 29.95 in 10.0 mi West 3.5 mph - N/A   Overcast
12:55 AM 33.8 °F - 32.0 °F 93% 29.94 in 10.0 mi Calm Calm - N/A   Overcast
12:56 AM 33.8 °F - 32.0 °F 93% 29.94 in 10.0 mi Calm Calm - N/A   Overcast
1:15 AM 33.8 °F - 32.0 °F 93% 29.94 in 10.0 mi Calm Calm - N/A   Overcast
1:19 AM 33.8 °F 30.8 °F 32.0 °F 93% 29.94 in 10.0 mi WSW 3.5 mph - N/A   Overcast
1:37 AM 33.8 °F 30.8 °F 32.0 °F 93% 29.94 in 10.0 mi WSW 3.5 mph - N/A   Overcast
1:55 AM 33.8 °F - 32.0 °F 93% 29.95 in 10.0 mi Calm Calm - N/A   Overcast
2:15 AM 33.8 °F - 33.8 °F 100% 29.94 in 10.0 mi Calm Calm - N/A   Overcast
2:35 AM 33.8 °F - 33.8 °F 100% 29.94 in 10.0 mi Calm Calm - N/A   Overcast
2:36 AM 33.8 °F 30.8 °F 33.8 °F 100% 29.94 in 10.0 mi WSW 3.5 mph - N/A   Overcast
2:59 AM 33.8 °F 29.6 °F 33.8 °F 100% 29.95 in 10.0 mi West 4.6 mph - N/A   Overcast
3:16 AM 33.8 °F 30.8 °F 33.8 °F 100% 29.95 in 10.0 mi West 3.5 mph - N/A   Overcast
3:36 AM 33.8 °F 30.8 °F 33.8 °F 100% 29.95 in 10.0 mi WSW 3.5 mph - N/A   Overcast
3:55 AM 33.8 °F 30.8 °F 32.0 °F 93% 29.95 in 10.0 mi WSW 3.5 mph - N/A   Overcast
3:56 AM 33.8 °F 30.8 °F 32.0 °F 93% 29.95 in 10.0 mi WSW 3.5 mph - N/A   Overcast
4:15 AM 33.8 °F 30.8 °F 32.0 °F 93% 29.96 in 10.0 mi West 3.5 mph - N/A   Overcast
4:19 AM 33.8 °F 30.8 °F 32.0 °F 93% 29.96 in 10.0 mi West 3.5 mph - N/A   Overcast
4:37 AM 33.8 °F - 32.0 °F 93% 29.96 in 10.0 mi Calm Calm - N/A   Overcast
4:56 AM 32.0 °F - 30.2 °F 93% 29.95 in 10.0 mi Calm Calm - N/A   Mostly Cloudy
5:15 AM 30.2 °F - 30.2 °F 100% 29.95 in 10.0 mi Calm Calm - N/A   Clear
5:16 AM 30.2 °F - 30.2 °F 100% 29.95 in 10.0 mi Calm Calm - N/A   Clear
5:35 AM 30.2 °F - 30.2 °F 100% 29.95 in 10.0 mi Calm Calm - N/A   Clear
5:36 AM 30.2 °F - 30.2 °F 100% 29.95 in 10.0 mi Calm Calm - N/A   Clear
5:58 AM 30.2 °F - 30.2 °F 100% 29.95 in 10.0 mi Calm Calm - N/A   Clear
6:16 AM 28.4 °F - 28.4 °F 100% 29.96 in 10.0 mi Calm Calm - N/A   Clear
6:35 AM 28.4 °F - 28.4 °F 100% 29.96 in 10.0 mi Calm Calm - N/A   Clear
6:36 AM 28.4 °F - 28.4 °F 100% 29.96 in 10.0 mi Calm Calm - N/A   Clear
6:55 AM 28.4 °F - 28.4 °F 100% 29.96 in 10.0 mi Calm Calm - N/A   Clear
6:56 AM 28.4 °F - 28.4 °F 100% 29.96 in 10.0 mi Calm Calm - N/A   Clear
7:15 AM 28.4 °F 24.6 °F 28.4 °F 100% 29.96 in 10.0 mi South 3.5 mph - N/A   Clear
7:19 AM 28.4 °F 24.6 °F 28.4 °F 100% 29.96 in 10.0 mi South 3.5 mph - N/A   Clear
7:38 AM 28.4 °F 24.6 °F 28.4 °F 100% 29.96 in 10.0 mi South 3.5 mph - N/A   Clear
7:55 AM 28.4 °F - 28.4 °F 100% 29.96 in 10.0 mi Calm Calm - N/A   Clear
8:15 AM 28.4 °F 24.6 °F 28.4 °F 100% 29.96 in 10.0 mi South 3.5 mph - N/A   Mostly Cloudy
8:16 AM 28.4 °F 24.6 °F 28.4 °F 100% 29.96 in 10.0 mi South 3.5 mph - N/A   Mostly Cloudy
8:35 AM 30.2 °F 26.7 °F 30.2 °F 100% 29.97 in 10.0 mi South 3.5 mph - N/A   Overcast
8:36 AM 30.2 °F - 30.2 °F 100% 29.97 in 10.0 mi Calm Calm - N/A   Overcast
8:59 AM 30.2 °F 25.4 °F 30.2 °F 100% 29.97 in 10.0 mi South 4.6 mph - N/A   Overcast
9:16 AM 32.0 °F 28.7 °F 30.2 °F 93% 29.97 in 10.0 mi South 3.5 mph - N/A   Overcast
9:36 AM 32.0 °F 28.7 °F 30.2 °F 93% 29.97 in 10.0 mi SSW 3.5 mph - N/A   Overcast
9:55 AM 33.8 °F 30.8 °F 30.2 °F 87% 29.97 in 10.0 mi SSW 3.5 mph - N/A   Overcast
9:56 AM 33.8 °F 30.8 °F 30.2 °F 87% 29.97 in 10.0 mi South 3.5 mph - N/A   Overcast
10:18 AM 35.6 °F 31.7 °F 32.0 °F 87% 29.96 in 10.0 mi South 4.6 mph - N/A   Overcast
10:56 AM 37.4 °F 34.9 °F 32.0 °F 81% 29.97 in 10.0 mi SSW 3.5 mph - N/A   Overcast
11:15 AM 37.4 °F 33.8 °F 32.0 °F 81% 29.96 in 10.0 mi SSW 4.6 mph - N/A   Overcast
11:35 AM 39.2 °F 35.0 °F 32.0 °F 75% 29.96 in 10.0 mi South 5.8 mph - N/A   Mostly Cloudy
11:39 AM 39.2 °F 34.2 °F 32.0 °F 75% 29.95 in 10.0 mi South 6.9 mph - N/A   Mostly Cloudy
11:57 AM 41.0 °F 38.0 °F 33.8 °F 76% 29.95 in 10.0 mi South 4.6 mph - N/A   Scattered Clouds
12:16 PM 42.8 °F 41.1 °F 33.8 °F 70% 29.95 in 10.0 mi SSE 3.5 mph - N/A   Scattered Clouds
12:35 PM 42.8 °F 38.6 °F 32.0 °F 66% 29.94 in 10.0 mi South 6.9 mph - N/A   Clear
12:36 PM 42.8 °F 38.6 °F 32.0 °F 66% 29.94 in 10.0 mi SSE 6.9 mph - N/A   Clear
12:55 PM 42.8 °F - 32.0 °F 66% 29.93 in 10.0 mi Calm Calm - N/A   Clear
12:59 PM 42.8 °F 40.1 °F 32.0 °F 66% 29.93 in 10.0 mi South 4.6 mph - N/A   Clear
1:16 PM 42.8 °F 40.1 °F 32.0 °F 66% 29.93 in 10.0 mi South 4.6 mph - N/A   Clear
1:35 PM 44.6 °F - 32.0 °F 61% 29.92 in 10.0 mi Calm Calm - N/A   Clear
1:36 PM 44.6 °F 42.2 °F 32.0 °F 61% 29.92 in 10.0 mi SSE 4.6 mph - N/A   Clear
1:55 PM 44.6 °F 42.2 °F 32.0 °F 61% 29.91 in 10.0 mi SSW 4.6 mph - N/A   Clear
1:59 PM 44.6 °F 42.2 °F 33.8 °F 66% 29.91 in 10.0 mi South 4.6 mph - N/A   Clear
2:17 PM 44.6 °F 42.2 °F 33.8 °F 66% 29.90 in 10.0 mi SE 4.6 mph - N/A   Clear
2:36 PM 44.6 °F 40.7 °F 32.0 °F 61% 29.89 in 10.0 mi SE 6.9 mph - N/A   Clear
2:55 PM 46.4 °F 44.3 °F 33.8 °F 62% 29.88 in 10.0 mi South 4.6 mph - N/A   Clear
2:56 PM 46.4 °F 45.2 °F 33.8 °F 62% 29.88 in 10.0 mi South 3.5 mph - N/A   Clear
3:15 PM 46.4 °F 42.4 °F 33.8 °F 62% 29.87 in 10.0 mi SSE 8.1 mph - N/A   Clear
3:20 PM 46.4 °F 42.4 °F 33.8 °F 62% 29.87 in 2.0 mi SSE 8.1 mph - N/A   Haze
3:37 PM 46.4 °F 44.3 °F 33.8 °F 62% 29.87 in 7.0 mi South 4.6 mph - N/A   Clear
3:55 PM 48.2 °F - 33.8 °F 58% 29.86 in 10.0 mi SE 6.9 mph - N/A   Clear
4:15 PM 46.4 °F 42.9 °F 33.8 °F 62% 29.86 in 10.0 mi SSE 6.9 mph - N/A   Clear
4:16 PM 46.4 °F 42.9 °F 33.8 °F 62% 29.86 in 10.0 mi SSE 6.9 mph - N/A   Clear
4:35 PM 48.2 °F - 33.8 °F 58% 29.86 in 10.0 mi SSE 8.1 mph - N/A   Clear
4:36 PM 48.2 °F - 33.8 °F 58% 29.86 in 10.0 mi SSE 8.1 mph - N/A   Clear
4:59 PM 48.2 °F - 35.6 °F 62% 29.86 in 10.0 mi SSE 6.9 mph - N/A   Clear
5:16 PM 48.2 °F - 33.8 °F 58% 29.86 in 10.0 mi SE 6.9 mph - N/A   Clear
5:36 PM 46.4 °F 43.5 °F 33.8 °F 62% 29.85 in 10.0 mi SE 5.8 mph - N/A   Clear
5:55 PM 46.4 °F 44.3 °F 33.8 °F 62% 29.86 in 10.0 mi SE 4.6 mph - N/A   Clear
6:15 PM - - 33.8 °F N/A% 29.86 in 10.0 mi Calm Calm - N/A   Clear
6:19 PM 44.6 °F - 33.8 °F 66% 29.85 in 10.0 mi Calm Calm - N/A   Clear
6:38 PM 44.6 °F 43.1 °F 33.8 °F 66% 29.86 in 10.0 mi ESE 3.5 mph - N/A   Clear
6:55 PM 44.6 °F - 33.8 °F 66% 29.86 in 10.0 mi Calm Calm - N/A   Clear
7:15 PM 44.6 °F 42.2 °F 33.8 °F 66% 29.87 in 10.0 mi ESE 4.6 mph - N/A   Clear
7:16 PM 44.6 °F 42.2 °F 33.8 °F 66% 29.87 in 10.0 mi ESE 4.6 mph - N/A   Clear
7:35 PM 42.8 °F 40.1 °F 33.8 °F 70% 29.87 in 10.0 mi ESE 4.6 mph - N/A   Clear
8:17 PM 42.8 °F 40.1 °F 33.8 °F 70% 29.87 in 10.0 mi ESE 4.6 mph - N/A   Clear
8:36 PM 42.8 °F 40.1 °F 33.8 °F 70% 29.87 in 10.0 mi ESE 4.6 mph - N/A   Clear
8:55 PM 42.8 °F 40.1 °F 33.8 °F 70% 29.87 in 10.0 mi ESE 4.6 mph - N/A   Clear
8:56 PM 42.8 °F 40.1 °F 33.8 °F 70% 29.87 in 10.0 mi East 4.6 mph - N/A   Clear
9:19 PM 39.2 °F - 33.8 °F 81% 29.88 in 10.0 mi Calm Calm - N/A   Clear
9:37 PM 39.2 °F 37.0 °F 33.8 °F 81% 29.88 in 10.0 mi East 3.5 mph - N/A   Clear
9:55 PM 39.2 °F 37.0 °F 33.8 °F 81% 29.88 in 10.0 mi East 3.5 mph - N/A   Clear
10:15 PM 39.2 °F 37.0 °F 33.8 °F 81% 29.88 in 10.0 mi East 3.5 mph - N/A   Clear
10:16 PM 39.2 °F 37.0 °F 33.8 °F 81% 29.88 in 10.0 mi East 3.5 mph - N/A   Clear
10:35 PM 39.2 °F 37.0 °F 33.8 °F 81% 29.89 in 10.0 mi East 3.5 mph - N/A   Clear
10:40 PM 39.2 °F 37.0 °F 33.8 °F 81% 29.89 in 10.0 mi ENE 3.5 mph - N/A   Clear
10:57 PM 39.2 °F 35.9 °F 33.8 °F 81% 29.89 in 10.0 mi East 4.6 mph - N/A   Clear
11:15 PM 39.2 °F 35.9 °F 33.8 °F 81% 29.89 in 10.0 mi ENE 4.6 mph - N/A   Clear
11:35 PM 37.4 °F 34.9 °F 33.8 °F 87% 29.89 in 10.0 mi NE 3.5 mph - N/A   Clear
11:36 PM 37.4 °F 34.9 °F 33.8 °F 87% 29.89 in 10.0 mi NE 3.5 mph - N/A   Clear
11:55 PM 37.4 °F 32.8 °F 33.8 °F 87% 29.88 in 10.0 mi East 5.8 mph - N/A   Clear
11:56 PM 37.4 °F 32.8 °F 33.8 °F 87% 29.88 in 10.0 mi East 5.8 mph - N/A   Clear